Regional Weather Roundup
Issued by NWS

Home | Current Version | Previous Version | Graphics & Text | Print | Product List | Glossary Off
Versions: 1 2 3 4 5 6 7 8 9 10 11 12 13 14 15 16 17 18 19 20 21 22 23 24 25 26 27 28 29 30 31 32 33 34 35 36 37 38 39 40 41 42 43 44 45 46 47 48 49 50

965
ASUS43 KDMX 260206
RWRIA

WEATHER ROUNDUP FOR IOWA
NATIONAL WEATHER SERVICE DES MOINES IA
900 PM CDT MON SEP 25 2017

NOTE: "FAIR" INDICATES FEW OR NO CLOUDS BELOW 12,000 FEET WITH NO
SIGNIFICANT WEATHER AND/OR OBSTRUCTIONS TO VISIBILITY.

* - THESE STATIONS ARE NOT NWS STATIONS...THUS NOT UNDER NWS
QUALITY CONTROL.  THEY ALSO DO NOT REPORT WEATHER SUCH
AS PRECIPITATION OR FOG.

IAZ001>003-012>014-020>022-031>034-043>046-260300-
   NORTHWEST IOWA

CITY           SKY/WX    TMP DP  RH WIND       PRES   REMARKS
CARROLL *      CLOUDY    64  64 100 N10       29.94F FOG
CHEROKEE *     CLOUDY    57  57 100 NE6       29.98F
DENISON *      LGT RAIN  61  61 100 NE7G14    29.97R
LE MARS *      CLOUDY    57  55  94 N7        29.99S
ORANGE CITY *  CLOUDY    57  57 100 N6        30.00R
SHELDON *      CLOUDY    55  55 100 NE6       29.98S
SIOUX CITY     CLOUDY    57  56  96 N7        30.00R
SPENCER        LGT RAIN  57  56  96 N7        29.99F
STORM LAKE *   CLOUDY    57  57 100 NE13      29.98S
$$

IAZ055>058-069>071-079>083-090>094-260300-
   SOUTHWEST IOWA

CITY           SKY/WX    TMP DP  RH WIND       PRES   REMARKS
ATLANTIC *     CLOUDY    66  66 100 CALM      29.94R
AUDUBON *      PTCLDY    66  64  94 NW3       29.95S
CLARINDA *     CLOUDY    68  68 100 NW7       29.95R
COUNCIL BLFS * LGT RAIN  61  61 100 N6        29.96S
CRESTON *      PTCLDY    66  66 100 E8        29.94R FOG
HARLAN  *      CLOUDY    64  64 100 N5G12     29.98S
LAMONI         CLEAR     67  66  97 NE6       29.93R
RED OAK *      LGT RAIN  66  66 100 NW8       29.94R
SHENANDOAH *   LGT RAIN  66  66 100 N3        29.95R
$$

IAZ047>049-059>061-072>074-084-260300-
   CENTRAL IOWA

CITY           SKY/WX    TMP DP  RH WIND       PRES   REMARKS
AMES           LGT RAIN  66  66 100 E6        29.94R
ANKENY *       LGT RAIN  66  66 100 NE5       29.93F
BOONE *        LGT RAIN  66  64  94 CALM      29.93F
CHARITON *       N/A     66  64  94 NE5       29.94S
DES MOINES     CLOUDY    68  67  96 E7        29.92F
GRINNELL*      MOCLDY    67  63  87 NW6       29.96R
KNOXVILLE *    LGT RAIN  68  64  88 NE7       29.93S
MARSHALLTOWN   CLOUDY    67  66  97 N3        29.96R
NEWTON *       MOCLDY    66  64  94 N9        29.95S
PELLA *        MOCLDY    68  63  83 N5        29.95S
PERRY *        CLOUDY    66  66  99 NE3       29.91F
$$

IAZ004>006-015-016-023>025-035-036-260300-
   NORTH CENTRAL IOWA

CITY           SKY/WX    TMP DP  RH WIND       PRES   REMARKS
ALGONA *       LGT RAIN  59  59 100 VRB7G15   29.97S
CLARION *      CLOUDY    64  64 100 CALM      29.95R
ESTHERVILLE    CLOUDY    56  56 100 N9        29.98F
FORT DODGE *   LGT RAIN  62  62 100 NW5       29.97R
MASON CITY     LGT RAIN  64  62  93 N3        29.96F
FOREST CITY *  CLOUDY    63  63 100 NE3       29.96S
WEBSTER CITY * MOCLDY    64  64 100 CALM      29.94R
IOWA FALLS *   LGT RAIN  65  64  97 N5        29.95F
$$

IAZ007>011-017>019-026>030-037>042-050>054-066-260300-
   NORTHEAST IOWA

CITY           SKY/WX    TMP DP  RH WIND       PRES   REMARKS
CEDAR RAPIDS   LGT RAIN  70  68  93 N12       29.92S
CHARLES CITY * CLOUDY    64  64 100 CALM      29.95S
CLINTON *      CLOUDY   N/A N/A N/A SE6       29.91F
DECORAH *      LGT RAIN  66  66 100 CALM      29.97F
DUBUQUE        MOCLDY    71  65  81 NW9       29.95R
MONTICELLO *   MOCLDY    72  68  88 NW12G18   29.92R
OELWEIN *      CLOUDY    66  66 100 N6        29.96F
WATERLOO       MOCLDY    65  64  97 N5        29.94R
$$

IAZ064-065-067-068-078-260300-
   EAST CENTRAL IOWA

CITY           SKY/WX    TMP DP  RH WIND       PRES   REMARKS
DAVENPORT      CLOUDY    74  64  71 S6        29.92S
IOWA CITY      PTCLDY    80  62  54 W3        29.92R HX  81
MUSCATINE *    CLOUDY    77  66  69 S5        29.90S
QUAD CITIES    CLOUDY    72  68  87 CALM      29.90R
$$

IAZ062-063-075>077-085>089-095>099-260300-
   SOUTHEAST IOWA

CITY           SKY/WX    TMP DP  RH WIND       PRES   REMARKS
BURLINGTON     CLOUDY    72  65  78 CALM      29.91R
FAIRFIELD *    CLOUDY    75  64  69 CALM      29.91R
FORT MADISON * PTCLDY    73  70  88 CALM      29.92S
KEOKUK *       CLEAR     75  64  69 SE3       29.91R
OSKALOOSA *      N/A     70  63  79 N7        29.94R
OTTUMWA        CLOUDY    72  64  76 N14       29.93R
WASHINGTON *   CLOUDY    75  64  69 S3        29.92R
$$

ABBREVIATIONS USED IN REMARKS
   TC - TEMPERATURES IN CELSIUS
  WCI - WIND CHILL INDEX
   HX - HEAT INDEX
  VSB - VISIBILITY
$$





USA.gov is the U.S. government's official web portal to all federal, state and local government web resources and services.